Location: Ostrava
(49.8330°N, 18.2830°E)
Time: 23:03:26
(UTC+02:00)

Iridium 7 - Visible Passes

Search period start: 05 July 2015 00:00
Search period end: 15 July 2015 00:00
Orbit: 776 x 779 km, 86.4° (Epoch: 05 July)

Date Brightness Start Highest point End Pass type
(mag) Time Alt. Az. Time Alt. Az. Time Alt. Az.
05 Jul 6.8 00:10:31 13° SW 00:14:42 34° WNW 00:19:26 10° NNW visible
05 Jul 7.0 21:56:43 10° SE 22:00:36 22° E 22:04:37 10° NNE visible
05 Jul 6.0 23:36:54 16° SSW 23:40:59 57° W 23:46:08 10° N visible
06 Jul 5.5 23:03:18 17° S 23:07:22 85° E 23:12:39 10° N visible
07 Jul 7.9 00:45:45 10° WSW 00:48:58 16° WNW 00:51:59 10° NNW visible
07 Jul 5.9 22:29:40 14° SSE 22:33:54 50° E 22:38:58 10° NNE visible
08 Jul 7.3 00:10:39 10° SW 00:14:59 25° WNW 00:19:15 10° NNW visible
08 Jul 6.6 21:56:06 10° SE 22:00:32 30° E 22:05:05 10° NNE visible
08 Jul 6.5 23:36:29 11° SSW 23:41:09 42° WNW 23:46:06 10° N visible
09 Jul 5.7 23:02:49 13° SSW 23:07:29 71° W 23:12:44 10° N visible
10 Jul 8.1 00:47:33 10° W 00:49:23 11° WNW 00:50:58 10° NW visible
10 Jul 5.6 22:29:10 12° S 22:33:56 70° E 22:39:09 10° N visible
11 Jul 7.7 00:11:34 10° WSW 00:15:19 19° WNW 00:18:56 10° NNW visible
11 Jul 6.1 21:55:41 10° SSE 22:00:30 41° E 22:05:24 10° NNE visible
11 Jul 7.1 23:36:47 10° SW 23:41:23 31° WNW 23:45:59 10° NNW visible
12 Jul 6.2 23:02:33 10° SSW 23:07:38 51° W 23:12:44 10° N visible
13 Jul 5.6 22:28:47 10° S 22:34:00 86° W 22:39:16 10° N visible
14 Jul 8.0 00:12:51 10° W 00:15:42 14° WNW 00:18:19 10° NW visible
14 Jul 5.7 21:55:26 10° SSE 22:00:30 56° E 22:05:38 10° NNE visible
14 Jul 7.6 23:37:31 10° SW 23:41:41 23° WNW 23:45:45 10° NNW visible
